Location: Zagreb
(45.8000°N, 16.0000°E)
Time: 00:13:29
(UTC+01:00)

NO-84 - Pass Details

Date: 09 November 2020
Orbit: 323 x 458 km, 55.0° (Epoch: 25 November)

Event Time Altitude Azimuth Distance (km) Brightness Sun altitude
Exits shadow 06:03:48 11° 280° (W) 1,365 ? -8.0°
Maximum altitude 06:06:10 22° 229° (SW) 882 ? -7.6°
Drops below altitude 10° 06:08:35 10° 175° (S) 1,351 ? -7.2°
Sets 06:10:47 0° 159° (SSE) 2,165 ? -6.9°
